User: anonymous   Login
Location: Unspecified
(0.0000°N, 0.0000°E)
Time: 20:50:53
(UTC+00:00)
Language:

NOSS 3-2 (A) - Orbit

View from above orbital plane
View from above orbital plane
View from above satellite
View from above satellite

Ground track
Ground track

The orbit data is extracted from the following two-line orbital elements,

1 28095U 03054A   18135.03953604 0.00000000  00000-0  00000-0 0    07
2 28095  63.4236 184.7951 0336500 358.2569   1.7431 13.41362909    04
Epoch (UTC): 15 May 2018 00:56:55
Eccentricity: 0.0336500
inclination: 63.4236°
perigee height: 852 km
apogee height: 1356 km
right ascension of ascending node: 184.7951°
argument of perigee: 358.2569°
revolutions per day: 13.41362909
mean anomaly at epoch: 1.7431°
orbit number at epoch: 0

The dashed part of the orbit path shows where the satellite is in the earth's shadow,  

DLR